Flag for Japan Weather past 2 weeks in Nagoya, Japan

Now
46 °F

Sprinkles. Fog.


Feels Like: 41 °F
Forecast: 38 / 57 °F
Wind: 13 mph from North

Location: Nagoya Airport

Current Time: Jan 26, 2015 at 6:36:54 PM

Latest Report: Jan 26, 2015 at 6:00 PM


Visibility: 2 mi

Pressure: 30.07 "Hg

Humidity: 93%

Dew point: 45 °F

Location of NagoyaLocation

Historic Weather in Nagoya — Graph

°F

Nagoya temperature yesterday

Maximum temperature yesterday: 52 °F (at 2:00 PM)
Minimum temperature yesterday: 41 °F (at 2:30 AM)
Average temperature yesterday: 47 °F

Past Weeks' High & Low Weather Summary

 TemperatureHumidityPressure
High52 °F (Jan 25, 2:00 PM)100% (Jan 15, 11:30 AM)30.45 "Hg (Jan 15, 11:30 AM)
Low34 °F (Jan 14, 5:30 AM)34% (Jan 21, 12:00 PM)29.56 "Hg (Jan 23, 12:00 AM)
Average44 °F68%30.11 "Hg
* Reported Jan 11 5:00 PM — Jan 26 5:30 PM, Nagoya, Weather by CustomWeather, © 2014

Note: Actual official high and low records may vary slightly from our data, if they occured in-between our weather recording intervals... More about our weather records

Advertising

Nagoya weather history for previous 24 hours

 ConditionsComfort  
Time TempWeatherWind HumidityBarometerVisibility
5:30 PM
Jan 26
46 °FRain. Fog.14 mph87%30.07 "Hg2 mi
5:00 PM45 °FLight rain. Fog.15 mph93%30.07 "Hg3 mi
4:30 PM46 °FLight rain. Fog.13 mph82%30.07 "Hg3 mi
4:00 PM46 °FLight rain. Fog.10 mph82%30.09 "Hg3 mi
3:30 PM48 °FLight rain. Partly sunny.12 mph76%30.09 "Hg4 mi
3:00 PM48 °FLight rain. Broken clouds.10 mph71%30.09 "Hg5 mi
2:30 PM48 °FLight rain. Partly sunny.10 mph71%30.09 "Hg5 mi
2:00 PM48 °FPartly sunny.10 mph71%30.12 "Hg5 mi
1:30 PM48 °FBroken clouds.9 mph71%30.12 "Hg5 mi
1:00 PM48 °FLight rain. Broken clouds.9 mph76%30.15 "Hg4 mi
12:30 PM48 °FLight rain. Broken clouds.9 mph71%30.15 "Hg4 mi
12:00 PM48 °FBroken clouds.8 mph71%30.18 "Hg5 mi
11:30 AM48 °FPartly sunny.8 mph71%30.21 "Hg5 mi
11:00 AM48 °FBroken clouds.8 mph71%30.24 "Hg4 mi
10:30 AM48 °FBroken clouds.9 mph71%30.24 "Hg4 mi
10:00 AM48 °FPassing clouds.5 mph66%30.24 "HgN/A
9:30 AM46 °FScattered clouds.6 mph76%30.27 "HgN/A
9:00 AM45 °FPartly sunny.7 mph81%30.27 "HgN/A
8:30 AM45 °FPassing clouds.6 mph76%30.27 "HgN/A
8:00 AM43 °FScattered clouds.2 mph87%30.27 "HgN/A
7:30 AM41 °FSunny.5 mph81%30.30 "Hg10 mi
7:00 AM41 °FSunny.5 mph87%30.27 "Hg10 mi
6:30 AM41 °FPassing clouds.3 mph87%30.27 "HgN/A
5:30 AM43 °FPassing clouds.3 mph81%30.27 "HgN/A
5:00 AM41 °FPassing clouds.5 mph87%30.27 "HgN/A
4:30 AM41 °FPassing clouds.7 mph87%30.27 "HgN/A
4:00 AM39 °FPassing clouds.6 mph93%30.30 "HgN/A
3:30 AM41 °FPassing clouds.7 mph81%30.30 "HgN/A
3:00 AM41 °FPassing clouds.6 mph81%30.30 "HgN/A
2:30 AM43 °FPassing clouds.6 mph81%30.30 "HgN/A
2:00 AM39 °FPassing clouds.5 mph87%30.30 "HgN/A
1:30 AM41 °FPassing clouds.3 mph81%30.30 "HgN/A
1:00 AM43 °FPassing clouds.5 mph81%30.30 "HgN/A
12:30 AM45 °FPassing clouds.1 mph76%30.33 "HgN/A
12:00 AM43 °FClear.5 mph81%30.33 "Hg10 mi
11:30 PM
Jan 25
45 °FClear.3 mph76%30.33 "Hg10 mi
11:00 PM45 °FPassing clouds.3 mph76%30.33 "HgN/A
10:30 PM45 °FPassing clouds.5 mph76%30.33 "HgN/A
10:00 PM46 °FPassing clouds.3 mph76%30.36 "HgN/A
9:30 PM46 °FPassing clouds.1 mph82%30.36 "HgN/A
9:00 PM46 °FPassing clouds.2 mph87%30.36 "HgN/A
8:30 PM46 °FPassing clouds.No wind76%30.36 "HgN/A
8:00 PM46 °FPassing clouds.No wind76%30.36 "HgN/A
7:30 PM48 °FPassing clouds.3 mph76%30.33 "HgN/A
7:00 PM46 °FPassing clouds.5 mph66%30.33 "HgN/A
6:30 PM48 °FClear.2 mph58%30.33 "Hg10 mi
6:00 PM50 °FClear.3 mph54%30.33 "Hg10 mi
Weather by CustomWeather, © 2014

See weather overviewHow to use our weather pages